Location: Mannheim
(49.4880°N, 8.4650°E)
Time: 05:33:45
(UTC+02:00)

ACS3 Solar Sail - Pass Details

Date: 24 September 2024
Orbit: 963 x 1036 km, 97.4° (Epoch: 04 October)

Event Time Altitude Azimuth Distance (km) Brightness Sun altitude
Exits shadow 23:05:16 11° 230° (SW) 2,791 4.2 -33.8°
Maximum altitude 23:09:37 20° 275° (W) 2,193 4.0 -34.2°
Drops below altitude 10° 23:14:11 10° 320° (NW) 2,839 5.0 -34.7°
Sets 23:17:30 0° 337° (NNW) 3,788 5.8 -35.0°
